This is the latest recevied weather packets stored in our database for station/object AI5BL. If no packets are shown the sender has not sent any weather packets the latest 10 day(s).
| Time | Temp. | Humidity | Pressure | Rain* | Wind** | Luminosity | Snow |
|---|---|---|---|---|---|---|---|
| 1788624452 | 31.11° C | 74% | 1017.4 hPa | 0 mm | - | 357 W/m² | - |
| 1788624151 | 30.56° C | 74% | 1017.3 hPa | 0 mm | - | 715 W/m² | - |
| 1788623847 | 31.11° C | 77% | 1017.4 hPa | 0 mm | - | 529 W/m² | - |
| 1788623545 | 30.56° C | 77% | 1017.5 hPa | 0 mm | - | 710 W/m² | - |
| 1788623239 | 30.56° C | 77% | 1017.5 hPa | 0 mm | - | 203 W/m² | - |
| 1788622935 | 30.56° C | 78% | 1017.5 hPa | 0 mm | - | 719 W/m² | - |
| 1788622631 | 30° C | 77% | 1017.4 hPa | 0 mm | - | 710 W/m² | - |
| 1788622326 | 30.56° C | 82% | 1017.3 hPa | 0 mm | - | 653 W/m² | - |
| 1788622021 | 30° C | 84% | 1017.4 hPa | 0 mm | - | 639 W/m² | - |
| 1788621715 | 29.44° C | 80% | 1017.4 hPa | 0 mm | - | 433 W/m² | - |
| 1788621410 | 29.44° C | 81% | 1017.2 hPa | 0 mm | - | 583 W/m² | - |
| 1788621106 | 29.44° C | 82% | 1017.3 hPa | 0 mm | - | 551 W/m² | - |
| 1788620801 | 28.89° C | 83% | 1017.5 hPa | 0 mm | - | 238 W/m² | - |
| 1788620499 | 28.89° C | 87% | 1017.4 hPa | 0 mm | - | 619 W/m² | - |
| 1788620198 | 27.22° C | 88% | 1017.4 hPa | 0 mm | - | 616 W/m² | - |
| 1788619897 | 26.67° C | 92% | 1017.6 hPa | 0 mm | - | 390 W/m² | - |
| 1788619592 | 26.11° C | 96% | 1017.3 hPa | 0 mm | - | 228 W/m² | - |
| 1788619291 | 26.11° C | 97% | 1017.6 hPa | 0 mm | - | 237 W/m² | - |
| 1788618995 | 25.56° C | 97% | 1017.2 hPa | 0 mm | - | 164 W/m² | - |
| 1788618686 | 25.56° C | 98% | 1017.2 hPa | 0 mm | - | 176 W/m² | - |
| 1788618385 | 25.56° C | 99% | 1017.1 hPa | 0 mm | - | 175 W/m² | - |
| 1788618085 | 25° C | 99% | 1017.1 hPa | 0 mm | - | 171 W/m² | - |
| 1788617785 | 25° C | 99% | 1017.2 hPa | 0 mm | - | 161 W/m² | - |
| 1788617481 | 25° C | 99% | 1017.2 hPa | 0 mm | - | 167 W/m² | - |
| 1788617176 | 25° C | 99% | 1017.2 hPa | 0 mm | - | 161 W/m² | - |
* Rain latest hour (hover to see other rain measurements)
** Current wind speed in m/s (hover to see current wind gust speed)